• In Österreich
  • Länderverzeichnis
  • Für 7 Tage
  • Wassertemperatur
  • Satellitenkarten
  • Wetterkarte
  • News
  • Widgets
  • user-avatar
    Anmelden

    Stündliche Wetter Bocas del Toro

    Heute, 22 Oktober, Montag

    Zeit Temperatur Niederschläge Wind Luftdruck Luftfeuchtigkeit
    00:00 +27°C° 0 mm 2 m/S 758 mmHg 75%
    01:00 +26°C° 0 mm 2 m/S 758 mmHg 74%
    02:00 +26°C° 0 mm 2 m/S 758 mmHg 73%
    03:00 +26°C° 0 mm 2 m/S 758 mmHg 73%
    04:00 +26°C° 0 mm 3 m/S 758 mmHg 72%
    05:00 +26°C° 0 mm 3 m/S 758 mmHg 72%
    06:00 +26°C° 0 mm 3 m/S 758 mmHg 72%
    07:00 +27°C° 0 mm 3 m/S 759 mmHg 72%
    08:00 +29°C° 0 mm 3 m/S 759 mmHg 67%
    09:00 +31°C° 0 mm 3 m/S 759 mmHg 61%
    10:00 +34°C° 0 mm 2 m/S 760 mmHg 55%
    11:00 +35°C° 0 mm 3 m/S 759 mmHg 53%
    12:00 +35°C° 0 mm 3 m/S 759 mmHg 51%
    13:00 +36°C° 0 mm 3 m/S 758 mmHg 48%
    14:00 +35°C° 0 mm 3 m/S 758 mmHg 50%
    15:00 +35°C° 0 mm 3 m/S 757 mmHg 53%
    16:00 +34°C° 0 mm 3 m/S 757 mmHg 55%
    17:00 +31°C° 0 mm 3 m/S 757 mmHg 65%
    18:00 +29°C° 0 mm 2 m/S 758 mmHg 76%
    19:00 +27°C° 0 mm 2 m/S 758 mmHg 86%
    20:00 +27°C° 0 mm 2 m/S 758 mmHg 86%
    21:00 +27°C° 0 mm 2 m/S 759 mmHg 87%
    22:00 +26°C° 0 mm 2 m/S 759 mmHg 87%
    23:00 +26°C° 0 mm 2 m/S 759 mmHg 82%

    Morgen, 23 Oktober, Dienstag

    Zeit Temperatur Niederschläge Wind Luftdruck Luftfeuchtigkeit
    00:00 +26°C° 0 mm 2 m/S 759 mmHg 78%
    01:00 +26°C° 0 mm 2 m/S 759 mmHg 73%
    02:00 +26°C° 0 mm 2 m/S 758 mmHg 68%
    03:00 +25°C° 0 mm 2 m/S 758 mmHg 63%
    04:00 +25°C° 0 mm 2 m/S 758 mmHg 58%
    05:00 +25°C° 0 mm 2 m/S 758 mmHg 57%
    06:00 +25°C° 0 mm 2 m/S 758 mmHg 56%
    07:00 +25°C° 0 mm 2 m/S 759 mmHg 55%
    08:00 +28°C° 0 mm 2 m/S 759 mmHg 50%
    09:00 +31°C° 0 mm 2 m/S 759 mmHg 46%
    10:00 +34°C° 0 mm 2 m/S 760 mmHg 41%
    11:00 +35°C° 0 mm 2 m/S 759 mmHg 41%
    12:00 +36°C° 0 mm 2 m/S 759 mmHg 42%
    13:00 +37°C° 0 mm 2 m/S 758 mmHg 42%
    14:00 +36°C° 0.2 mm 3 m/S 758 mmHg 47%
    15:00 +35°C° 0.2 mm 3 m/S 757 mmHg 52%
    16:00 +34°C° 0.2 mm 3 m/S 757 mmHg 58%
    17:00 +31°C° 0.6 mm 2 m/S 757 mmHg 67%
    18:00 +29°C° 0.6 mm 2 m/S 757 mmHg 77%
    19:00 +28°C° 0.6 mm 2 m/S 758 mmHg 86%
    20:00 +28°C° 0.5 mm 2 m/S 758 mmHg 87%
    21:00 +27°C° 0.5 mm 1 m/S 759 mmHg 87%
    22:00 +27°C° 0.5 mm 1 m/S 759 mmHg 87%
    23:00 +27°C° 0.2 mm 2 m/S 759 mmHg 85%

    übermorgen, 24 Oktober, Mittwoch

    Zeit Temperatur Niederschläge Wind Luftdruck Luftfeuchtigkeit
    00:00 +27°C° 0.2 mm 2 m/S 759 mmHg 83%
    01:00 +27°C° 0.2 mm 2 m/S 759 mmHg 81%
    02:00 +27°C° 0 mm 2 m/S 758 mmHg 78%
    03:00 +27°C° 0 mm 2 m/S 758 mmHg 75%
    04:00 +27°C° 0 mm 2 m/S 758 mmHg 72%
    05:00 +27°C° 0 mm 2 m/S 758 mmHg 70%
    06:00 +27°C° 0 mm 2 m/S 758 mmHg 68%
    07:00 +27°C° 0 mm 2 m/S 758 mmHg 66%
    08:00 +29°C° 0 mm 2 m/S 759 mmHg 60%
    09:00 +32°C° 0 mm 2 m/S 759 mmHg 54%
    10:00 +35°C° 0 mm 2 m/S 760 mmHg 48%
    11:00 +36°C° 0 mm 2 m/S 759 mmHg 48%
    12:00 +36°C° 0 mm 3 m/S 758 mmHg 48%
    13:00 +37°C° 0 mm 3 m/S 758 mmHg 48%
    14:00 +36°C° 0.4 mm 3 m/S 757 mmHg 52%
    15:00 +35°C° 0.4 mm 4 m/S 757 mmHg 56%
    16:00 +34°C° 0.4 mm 4 m/S 756 mmHg 60%
    17:00 +31°C° 0.4 mm 3 m/S 756 mmHg 69%
    18:00 +30°C° 0.4 mm 3 m/S 757 mmHg 78%
    19:00 +28°C° 0.4 mm 2 m/S 757 mmHg 87%
    20:00 +28°C° 0.2 mm 2 m/S 758 mmHg 87%
    21:00 +28°C° 0.2 mm 2 m/S 758 mmHg 87%
    22:00 +27°C° 0.2 mm 2 m/S 759 mmHg 88%
    23:00 +27°C° 0 mm 2 m/S 759 mmHg 85%

    25 Oktober, Donnerstag

    Zeit Temperatur Niederschläge Wind Luftdruck Luftfeuchtigkeit
    00:00 +27°C° 0 mm 2 m/S 758 mmHg 82%
    01:00 +27°C° 0 mm 2 m/S 758 mmHg 79%
    02:00 +27°C° 0 mm 2 m/S 757 mmHg 76%
    03:00 +27°C° 0 mm 2 m/S 757 mmHg 73%
    04:00 +27°C° 0 mm 2 m/S 757 mmHg 70%
    05:00 +27°C° 0.1 mm 2 m/S 757 mmHg 68%
    06:00 +27°C° 0.1 mm 2 m/S 757 mmHg 66%
    07:00 +27°C° 0.1 mm 2 m/S 758 mmHg 65%
    08:00 +29°C° 0 mm 2 m/S 758 mmHg 58%
    09:00 +32°C° 0 mm 2 m/S 758 mmHg 51%
    10:00 +35°C° 0 mm 2 m/S 759 mmHg 44%
    11:00 +36°C° 0.1 mm 3 m/S 758 mmHg 45%
    12:00 +36°C° 0.1 mm 3 m/S 757 mmHg 45%
    13:00 +37°C° 0.1 mm 4 m/S 757 mmHg 46%
    14:00 +36°C° 0.5 mm 4 m/S 756 mmHg 50%
    15:00 +35°C° 0.5 mm 4 m/S 756 mmHg 55%
    16:00 +34°C° 0.5 mm 4 m/S 755 mmHg 59%
    17:00 +33°C° 0.6 mm 3 m/S 756 mmHg 68%
    18:00 +30°C° 0.6 mm 3 m/S 756 mmHg 78%
    19:00 +28°C° 0.6 mm 2 m/S 757 mmHg 87%
    20:00 +28°C° 0.6 mm 2 m/S 757 mmHg 88%
    21:00 +28°C° 0.6 mm 2 m/S 757 mmHg 88%
    22:00 +28°C° 0.6 mm 2 m/S 758 mmHg 89%
    23:00 +28°C° 0.3 mm 2 m/S 758 mmHg 87%

    26 Oktober, Freitag

    Zeit Temperatur Niederschläge Wind Luftdruck Luftfeuchtigkeit
    00:00 +28°C° 0.3 mm 2 m/S 757 mmHg 86%
    01:00 +27°C° 0.3 mm 2 m/S 757 mmHg 85%
    02:00 +27°C° 0.3 mm 2 m/S 757 mmHg 83%
    03:00 +27°C° 0.3 mm 2 m/S 756 mmHg 80%
    04:00 +27°C° 0.3 mm 2 m/S 756 mmHg 78%
    05:00 +27°C° 0.3 mm 2 m/S 757 mmHg 75%
    06:00 +27°C° 0.3 mm 2 m/S 757 mmHg 73%
    07:00 +27°C° 0.3 mm 2 m/S 758 mmHg 70%
    08:00 +30°C° 0.2 mm 2 m/S 758 mmHg 63%
    09:00 +32°C° 0.2 mm 2 m/S 758 mmHg 57%
    10:00 +35°C° 0.2 mm 2 m/S 758 mmHg 51%
    11:00 +35°C° 0.3 mm 3 m/S 758 mmHg 50%
    12:00 +36°C° 0.3 mm 3 m/S 757 mmHg 50%
    13:00 +36°C° 0.3 mm 3 m/S 756 mmHg 50%
    14:00 +35°C° 0.6 mm 3 m/S 756 mmHg 54%
    15:00 +35°C° 0.6 mm 3 m/S 755 mmHg 57%
    16:00 +34°C° 0.6 mm 4 m/S 755 mmHg 61%
    17:00 +31°C° 0.6 mm 3 m/S 755 mmHg 69%
    18:00 +30°C° 0.6 mm 2 m/S 756 mmHg 77%
    19:00 +28°C° 0.6 mm 2 m/S 757 mmHg 86%
    20:00 +28°C° 0.6 mm 2 m/S 757 mmHg 86%
    21:00 +28°C° 0.6 mm 2 m/S 758 mmHg 86%
    22:00 +28°C° 0.6 mm 2 m/S 758 mmHg 86%
    23:00 +28°C° 0.4 mm 2 m/S 758 mmHg 85%

    27 Oktober, Samstag

    Zeit Temperatur Niederschläge Wind Luftdruck Luftfeuchtigkeit
    00:00 +28°C° 0.4 mm 2 m/S 757 mmHg 83%
    01:00 +27°C° 0.4 mm 2 m/S 757 mmHg 81%
    02:00 +27°C° 0.1 mm 2 m/S 757 mmHg 79%
    03:00 +27°C° 0.1 mm 2 m/S 757 mmHg 77%
    04:00 +27°C° 0.1 mm 2 m/S 757 mmHg 75%
    05:00 +27°C° 0.1 mm 2 m/S 757 mmHg 73%
    06:00 +27°C° 0.1 mm 2 m/S 758 mmHg 71%
    07:00 +27°C° 0.1 mm 2 m/S 758 mmHg 69%
    08:00 +29°C° 0.1 mm 3 m/S 758 mmHg 64%
    09:00 +31°C° 0.1 mm 3 m/S 759 mmHg 58%
    10:00 +34°C° 0.1 mm 3 m/S 759 mmHg 52%
    11:00 +35°C° 0.1 mm 3 m/S 758 mmHg 51%
    12:00 +36°C° 0.1 mm 3 m/S 758 mmHg 50%
    13:00 +36°C° 0.1 mm 4 m/S 757 mmHg 49%
    14:00 +36°C° 0.4 mm 3 m/S 757 mmHg 51%
    15:00 +35°C° 0.4 mm 3 m/S 756 mmHg 54%
    16:00 +34°C° 0.4 mm 3 m/S 756 mmHg 56%
    17:00 +33°C° 0.5 mm 3 m/S 757 mmHg 65%
    18:00 +30°C° 0.5 mm 3 m/S 757 mmHg 74%
    19:00 +28°C° 0.5 mm 2 m/S 758 mmHg 83%
    20:00 +28°C° 0.5 mm 2 m/S 758 mmHg 80%
    21:00 +28°C° 0.5 mm 2 m/S 759 mmHg 78%
    22:00 +28°C° 0.5 mm 2 m/S 759 mmHg 76%
    23:00 +27°C° 0.2 mm 3 m/S 759 mmHg 73%

    28 Oktober, Sonntag

    Zeit Temperatur Niederschläge Wind Luftdruck Luftfeuchtigkeit
    00:00 +27°C° 0.2 mm 3 m/S 758 mmHg 70%
    01:00 +27°C° 0.2 mm 3 m/S 758 mmHg 67%
    02:00 +27°C° 0 mm 3 m/S 758 mmHg 67%
    03:00 +27°C° 0 mm 3 m/S 758 mmHg 66%
    04:00 +27°C° 0 mm 3 m/S 757 mmHg 66%
    05:00 +27°C° 0.2 mm 3 m/S 758 mmHg 67%
    06:00 +27°C° 0.2 mm 3 m/S 758 mmHg 68%
    07:00 +27°C° 0.2 mm 3 m/S 759 mmHg 70%
    08:00 +29°C° 0.3 mm 3 m/S 759 mmHg 66%
    09:00 +31°C° 0.3 mm 3 m/S 759 mmHg 63%
    10:00 +33°C° 0.3 mm 3 m/S 760 mmHg 60%
    11:00 +34°C° 0.3 mm 4 m/S 759 mmHg 58%
    12:00 +35°C° 0.3 mm 4 m/S 758 mmHg 56%
    13:00 +36°C° 0.3 mm 4 m/S 758 mmHg 55%
    14:00 +35°C° 0.5 mm 4 m/S 757 mmHg 60%
    15:00 +34°C° 0.5 mm 4 m/S 757 mmHg 65%
    16:00 +33°C° 0.5 mm 4 m/S 756 mmHg 70%
    17:00 +32°C° 0.9 mm 4 m/S 757 mmHg 76%
    18:00 +30°C° 0.9 mm 3 m/S 757 mmHg 82%
    19:00 +28°C° 0.9 mm 3 m/S 758 mmHg 88%
    20:00 +28°C° 1 mm 3 m/S 758 mmHg 87%
    21:00 +28°C° 1 mm 3 m/S 759 mmHg 87%
    22:00 +28°C° 1 mm 3 m/S 759 mmHg 86%
    23:00 +28°C° 0.9 mm 3 m/S 759 mmHg 85%
    Mehr zeigen